Crossville, TN

1:39 AM CDT on April 27, 2017 (GMT -0500)
Crossville Memorial-Whitson

Weather History for KCSV - June, 2013

Change the Weather History Date:

Wednesday, June 19, 2013

  Actual Average Record
Temperature  
Mean Temperature 71 °F 72 °F  
Max Temperature 83 °F 82 °F 89 °F (1984)
Min Temperature 59 °F 62 °F 45 °F (1965)
Degree Days  
Heating Degree Days 0    
Month to date heating degree days 0  
Since 1 June heating degree days 0  
Since 1 July heating degree days 4343  
Cooling Degree Days 6    
Month to date cooling degree days 106  
Year to date cooling degree days 186  
Since 1 June cooling degree days 106  
Growing Degree Days 20 (Base 50)    
Moisture  
Dew Point 60 °F    
Average Humidity 72    
Maximum Humidity 97    
Minimum Humidity 46    
Precipitation  
Precipitation 0.00 in 0.15 in 1.39 in (1995)
Month to date precipitation 3.28 2.96  
Year to date precipitation 33.31 27.34  
Sea Level Pressure  
Sea Level Pressure 30.03 in    
Wind  
Wind Speed 2 mph (NNE)    
Max Wind Speed 9 mph    
Max Gust Speed 13 mph    
Visibility 7 miles    
Events      
T = Trace of Precipitation, MM = Missing Value Source: NWS Daily Summary

Daily Weather History Graph

Daily Weather History Graph

Search for Another Location

Airport or City:

Trip Planner

Search our weather history database for the weather conditions in past years. The results will help you decide how hot, cold, wet, or windy it might be!

Date:

Astronomy

Jun. 19, 2013 Rise Set
Actual Time 5:23 AM CDT 7:59 PM CDT
Civil Twilight 4:53 AM CDT 8:30 PM CDT
Nautical Twilight 4:15 AM CDT 9:07 PM CDT
Astronomical Twilight 3:34 AM CDT 9:49 PM CDT
Moon 3:56 PM CDT (6/19) 2:01 AM CDT (6/19)
Length of Visible Light 15h 36m
Length of Day
14h 36m
Waxing Gibbous, 80% of the Moon is Illuminated
Jun 19
Waxing Gibbous
Jun 23
Full
Jun 29
Last Quarter
Jul 8
New
Jul 15
First Quarter

Hourly Weather History & Observations

Time (CDT) Temp. Heat Index Dew Point Humidity Pressure Visibility Wind Dir Wind Speed Gust Speed Precip Events Conditions
12:53 AM 62.1 °F - 60.1 °F 93% 29.97 in 3.0 mi Calm Calm - N/A   Clear
1:25 AM 60.8 °F - 59.0 °F 94% 30.02 in 1.8 mi Calm Calm - 0.01 in   Partly Cloudy
1:39 AM 60.8 °F - 59.0 °F 94% 30.02 in 3.0 mi Calm Calm - 0.01 in   Partly Cloudy
1:53 AM 62.1 °F - 60.1 °F 93% 29.98 in 7.0 mi NW 3.5 mph - 0.01 in   Clear
2:15 AM 62.6 °F - 60.8 °F 94% 30.02 in 6.0 mi Calm Calm - N/A   Mostly Cloudy
2:36 AM 62.6 °F - 60.8 °F 94% 30.02 in 5.0 mi Calm Calm - N/A   Scattered Clouds
2:53 AM 61.0 °F - 59.0 °F 93% 29.97 in 3.0 mi Calm Calm - N/A   Clear
2:57 AM 60.8 °F - 59.0 °F 94% 30.01 in 1.8 mi Calm Calm - N/A   Clear
3:20 AM 60.8 °F - 59.0 °F 94% 30.00 in 3.0 mi Calm Calm - N/A   Clear
3:53 AM 61.0 °F - 59.0 °F 93% 29.96 in 4.0 mi Calm Calm - N/A   Clear
4:01 AM 60.8 °F - 59.0 °F 94% 30.00 in 1.5 mi Calm Calm - N/A   Clear
4:29 AM 60.8 °F - 57.2 °F 88% 30.01 in 3.0 mi Calm Calm - N/A   Clear
4:53 AM 60.1 °F - 57.9 °F 93% 29.97 in 8.0 mi Calm Calm - N/A   Clear
5:42 AM 59.0 °F - 57.2 °F 94% 30.04 in 2.5 mi Calm Calm - N/A   Clear
5:53 AM 60.1 °F - 57.9 °F 93% 30.00 in 5.0 mi Calm Calm - N/A   Clear
6:53 AM 62.1 °F - 60.1 °F 93% 30.03 in 4.0 mi Calm Calm - N/A   Clear
7:53 AM 69.1 °F - 64.0 °F 84% 30.04 in 8.0 mi Calm Calm - N/A   Clear
8:53 AM 72.0 °F - 63.0 °F 73% 30.04 in 10.0 mi Calm Calm - N/A   Clear
9:53 AM 75.0 °F - 59.0 °F 57% 30.04 in 10.0 mi East 4.6 mph - N/A   Clear
10:53 AM 78.1 °F - 61.0 °F 56% 30.05 in 10.0 mi Variable 3.5 mph - N/A   Clear
11:53 AM 79.0 °F - 57.9 °F 48% 30.05 in 10.0 mi NNE 4.6 mph - N/A   Clear
12:53 PM 80.1 °F 80.7 °F 59.0 °F 48% 30.05 in 10.0 mi NNE 5.8 mph - N/A   Mostly Cloudy
1:53 PM 81.0 °F 81.6 °F 60.1 °F 49% 30.03 in 10.0 mi NE 5.8 mph - N/A   Partly Cloudy
2:53 PM 81.0 °F 81.6 °F 60.1 °F 49% 30.03 in 10.0 mi East 5.8 mph - N/A   Partly Cloudy
3:53 PM 82.0 °F 82.1 °F 59.0 °F 45% 30.02 in 10.0 mi Calm Calm - N/A   Mostly Cloudy
4:53 PM 80.1 °F 80.9 °F 60.1 °F 50% 30.03 in 10.0 mi North 6.9 mph - N/A   Mostly Cloudy
5:53 PM 80.1 °F 81.1 °F 61.0 °F 52% 30.03 in 10.0 mi NNE 5.8 mph - N/A   Clear
6:53 PM 78.1 °F - 64.0 °F 62% 30.04 in 10.0 mi Calm Calm - N/A   Mostly Cloudy
7:53 PM 73.9 °F - 64.0 °F 71% 30.05 in 10.0 mi Calm Calm - N/A   Overcast
8:53 PM 69.1 °F - 64.0 °F 84% 30.06 in 10.0 mi Calm Calm - N/A   Clear
9:53 PM 68.0 °F - 64.0 °F 87% 30.08 in 10.0 mi Calm Calm - N/A   Clear
10:53 PM 66.9 °F - 63.0 °F 87% 30.08 in 10.0 mi Calm Calm - N/A   Clear
11:53 PM 64.9 °F - 63.0 °F 93% 30.10 in 4.0 mi Calm Calm - N/A   Clear